sat.trackr.live / text

‹ back to catalog

STARLINK-33905

NORAD 63881 · 2025-094T

PAYLOAD ACTIVE UNKNOWN

§ Identity

Operator
Country
US
Launch date
2025-05-10
Launch site
AFWTR
Launch vehicle
Mass (kg)
RCS (m²)

Purposes: comms

External: N2YO · Heavens-Above · Gunter

§ Orbital elements

Epoch: 2026-09-20T13:52:10.939296Z

Period
94.14 min
Inclination
69.9992°
Eccentricity
0.0003953
Mean motion
15.29586282 rev/d
Perigee alt
474.3 km
Apogee alt
479.8 km
Semi-major
6,855.2 km
B*
2.9934e-4
RAAN
100.7637°
Arg perigee
281.0189°
Mean anomaly
79.0541°
Rev number
7,645

§ Raw data

STARLINK-339051 63881U 25094T   26263.57790439  .00008489  00000+0  29934-3 0  99972 63881  69.9992 100.7637 0003953 281.0189  79.0541 15.29586282 76451

JSON: /api/v1/satellites/63881 · /tle

For live sub-satellite position, see the globe view (requires WebGL).

§ Visibility from observer

Set your observer location to see the next 7 days of passes ≥ 10°. The values pass through the URL so the page stays shareable.

No JS? Fill the form by hand. The geolocation button needs JavaScript.